Date,TemperatureHighF,TemperatureAvgF,TemperatureLowF,DewpointHighF,DewpointAvgF,DewpointLowF,HumidityHigh,HumidityAvg,HumidityLow,PressureMaxIn,PressureMinIn,WindSpeedMaxMPH,WindSpeedAvgMPH,GustSpeedMaxMPH,PrecipitationSumIn
2013-3-1,45.7,38.9,32.0,33.7,27.9,24.2,99,66,48,29.43,29.27,9,2,13,0.01
2013-3-2,34.9,33.3,32.7,25.4,25.0,24.5,73,71,67,29.42,29.40,7,2,10,0.00
2013-3-3,40.8,31.2,26.2,29.2,23.0,19.9,86,72,62,29.40,29.32,6,2,10,0.00
2013-3-4,38.8,32.2,25.0,22.8,20.3,17.3,73,62,49,29.53,29.35,6,2,10,0.00
2013-3-5,49.3,39.4,29.1,27.5,24.7,19.7,70,56,41,29.77,29.53,8,2,13,0.00
2013-3-6,45.1,36.4,32.9,33.1,29.4,25.7,93,76,66,29.86,29.75,11,3,17,0.01
2013-3-7,36.1,33.1,31.1,31.7,29.0,25.1,95,85,64,29.83,29.76,6,2,11,0.01
2013-3-8,42.3,34.0,29.8,29.7,27.3,24.0,96,78,49,29.93,29.60,8,2,14,0.01
2013-3-9,60.8,46.7,27.1,24.7,16.5,2.3,80,38,10,29.99,29.91,5,2,10,0.00
2013-3-10,59.2,43.5,21.9,29.4,25.8,19.7,91,54,27,30.11,29.95,9,2,13,0.00
2013-3-11,47.7,43.1,34.9,40.8,35.2,30.4,86,74,65,29.98,29.80,7,2,13,0.00
2013-3-12,51.8,47.2,43.3,50.7,46.4,40.5,99,97,85,29.78,29.40,4,1,8,0.85
2013-3-13,59.5,43.9,33.1,37.1,24.5,15.2,95,49,29,29.52,29.45,10,3,15,0.01
2013-3-14,36.0,27.0,21.6,24.5,11.2,0.5,71,51,41,29.58,29.47,10,2,14,0.00
2013-3-15,23.2,21.7,19.2,11.2,8.7,6.8,65,57,50,29.58,29.56,3,1,8,0.00
2013-3-16,42.1,31.6,24.4,25.5,12.9,8.7,79,47,25,29.58,29.42,3,1,6,0.00
2013-3-17,46.9,31.2,21.6,16.5,6.6,-5.0,78,39,18,29.86,29.59,13,2,18,0.00
2013-3-18,39.2,31.9,12.9,8.1,0.3,-9.3,67,29,12,30.16,29.92,4,0,6,0.00
2013-3-19,33.8,31.1,27.0,31.8,29.5,25.2,96,93,91,29.88,29.43,2,0,6,0.00
2013-3-20,42.1,30.6,18.7,26.9,20.7,15.2,96,68,45,29.51,29.42,10,1,14,0.02
2013-3-21,43.9,30.9,13.1,19.2,13.6,10.0,91,54,26,29.52,29.31,4,1,7,0.04
2013-3-22,41.0,32.0,16.9,22.4,18.1,11.8,81,57,37,29.46,29.35,11,2,17,0.01
2013-3-23,47.1,37.0,25.7,31.2,18.7,13.2,77,49,33,29.51,29.40,12,3,21,0.00
2013-3-24,73.6,40.8,29.1,47.8,22.2,18.6,72,48,36,29.57,29.47,9,3,13,0.00
2013-3-25,50.9,38.0,29.5,27.1,24.3,21.4,75,58,45,29.50,29.24,8,2,14,0.00
2013-3-26,49.3,39.5,33.8,29.8,24.4,16.4,84,58,29,29.50,29.30,6,1,10,0.00
2013-3-27,53.6,40.8,23.0,32.4,25.2,20.1,89,57,32,29.55,29.50,9,1,11,0.00
2013-3-28,52.2,45.9,34.9,33.7,29.3,27.8,92,54,41,29.73,29.61,7,2,12,0.00
2013-3-29,58.3,48.2,30.0,34.4,30.6,26.3,94,53,33,29.78,29.72,6,2,11,0.00
2013-3-30,59.5,42.3,27.7,33.2,21.6,8.3,92,54,13,29.82,29.74,8,1,12,0.00
2013-3-31,99.1,49.5,24.6,37.8,24.2,13.5,86,41,25,29.83,29.60,16,5,22,0.01